Voltar ao catálogo

STARLINK-36946

AtivoComunicaçõesSSO
NORAD 68382·PAYLOAD·🇺🇸 United States

Lançado Mar 26, 2026 de Vandenberg Space Force Base

Loading…

Próximas Passagens (próximas 24 horas)

TLE

AtualizadoSource: CelesTrak SupGP

Época: Sep 15, 2026, 04:15 UTC

1 68382C 26063C   26258.17756944  .00021277  00000+0  66096-3 0  2586
2 68382  97.2856  39.1613 0000846  75.6999   8.9983 15.33406864    10

Acompanhe STARLINK-36946 em tempo real com AllMySat

Download on the App Store